User: anonymous   Login
Location: Luxembourg
(49.6117°N, 6.1300°E)
Time: 16:13:18
(UTC+02:00)
Language:

Tiangong 2 - Orbit

View from above orbital plane
View from above orbital plane
View from above satellite
View from above satellite

Ground track
Ground track

The orbit data is extracted from the following two-line orbital elements,

1 41765U 16057A   18289.04534968  .00004744  00000-0  62232-4 0  9997
2 41765  42.7854 341.6305 0007111   7.5706  66.6298 15.59731696118898
Epoch (UTC): 16 October 2018 01:05:18
Eccentricity: 0.0007111
inclination: 42.7854°
perigee height: 383 km
apogee height: 393 km
right ascension of ascending node: 341.6305°
argument of perigee: 7.5706°
revolutions per day: 15.59731696
mean anomaly at epoch: 66.6298°
orbit number at epoch: 11889

The dashed part of the orbit path shows where the satellite is in the earth's shadow,  

DLR